Welcome to the New NWS' Forecast!
Most changes are behind the scenes, but click here for differences you might notice.
Latest weather observations around

Cincinnati, Cincinnati Municipal Airport Lunken Field (KLUK)

Using English Units (Switch to International System of Units)
Date/ Time (EDT) Wind (mph) Vis. (mi) Weather Sky Cond. Temp (°F) Rel. Humidity Wind Chill (°F) Heat Index (°F) Pressure Precip. (in)
Air Dwpt 6 hour Altimeter (inHg) Sea level (inHg) 1 hr 3 hr 6 hr
Max Min
Aug 16 05:53 SSW 5 6 Light Rain and Fog/Mist BKN120 68 68     100%     30.04 30.03 0    
Aug 16 04:53 Calm 6 Light Rain and Fog/Mist FEW080 BKN120 68 68     100%     30.05 30.04 0 1  
Aug 16 04:20 SW 7 3 Rain and Fog/Mist FEW011 BKN048 OVC090 69 69     100%     30.06   0    
Aug 16 04:04 S 10 1.5 Thunderstorms and Heavy Rain and Fog/Mist SCT030 BKN045 OVC060 68 68     100%     30.07   0    
Aug 16 04:00 SSW 8 3 Thunderstorms and Heavy Rain and Fog/Mist SCT032 BKN045 OVC060 68 68     100%     30.07   0    
Aug 16 03:53 SSE 6 2.5 Thunderstorms and Rain and Fog/Mist BKN034 BKN047 OVC065 68 68     100%     30.06 30.05 0    
Aug 16 03:35 WSW 11 1.25 Thunderstorms and Heavy Rain and Fog/Mist FEW008 BKN036 OVC070 69 69     100%     30.07   0    
Aug 16 03:26   2.5 Heavy Rain and Fog/Mist FEW008 BKN055 OVC070 70 70     100%     30.08   0    
Aug 16 03:21 3 3 Rain and Fog/Mist SCT060 OVC070 70 70     100%     30.06   0    
Aug 16 02:53 Calm 2.5 Rain and Fog/Mist FEW042 BKN065 OVC095 70 70     100%     30.04 30.03 0    
Aug 16 02:35 WSW 6 4 Rain and Fog/Mist SCT045 BKN060 70 70     100%     30.05   0    
Aug 16 02:19 3 2.5 Light Rain and Fog/Mist FEW009 SCT060 BKN100 69 69     100%     30.03   0    
Aug 16 01:53 Calm 9 Light Rain BKN100 69 69     100%     30.04 30.02 0   0
Aug 16 00:53 Calm 10 Clear CLR 68 68     100%     30.04 30.03 0    
Aug 15 23:53 SSW 6 10 Light Rain FEW120 69 69     100%     30.06 30.04 0    
Aug 15 23:29 E 7 5 Light Rain and Fog/Mist SCT050 BKN070 OVC110 69 69     100%     30.07   0    
Aug 15 23:20 SSW 5 2 Heavy Rain and Fog/Mist BKN045 BKN055 OVC070 70 69     97%     30.09   0    
Aug 15 22:53 W 13 4 Light Rain and Fog/Mist SCT039 BKN048 OVC060 72 69     91%   73 30.11 30.09 0 0  
Aug 15 22:36 W 11 10 Mostly Cloudy FEW021 BKN037 BKN050 74 70     87%   75 30.09        
Aug 15 21:53 S 5 9 Clear CLR 72 70     93%   73 30.05 30.03 0    
Aug 15 20:53 Calm 9 Clear CLR 73 71     94%   74 30.03 30.02      
Aug 15 19:53 S 3 9 Mostly Clear FEW070 74 72     94%   75 30.02 30.01 0   0
Aug 15 18:53 Calm 8 Light Rain BKN110 74 72     94%   75 30.03 30.02 0    
Aug 15 17:53 SSE 3 7 Partly Cloudy FEW060 SCT075 75 73     94%   77 30.04 30.03 0    
Aug 15 16:53 SSW 5 6 Light Rain and Fog/Mist BKN075 OVC095 73 72     96%   75 30.06 30.05 0 0  
Aug 15 16:21 Calm 3 Light Rain and Fog/Mist SCT047 SCT055 OVC070 72 71     97%   73 30.06   0    
Aug 15 16:11 WSW 8 1.75 Rain and Fog/Mist BKN043 BKN060 OVC075 72 71     97%   73 30.07   0    
Aug 15 15:53 WSW 11 2 Thunderstorms and Rain and Fog/Mist SCT027 BKN039 OVC075 72 70     93%   73 30.08 30.07 0    
Aug 15 15:42   1.75 Thunderstorms and Heavy Rain and Fog/Mist FEW039 BKN046 OVC075 73 71     94%   74 30.08   0    
Aug 15 15:30 SW 11 8 Thunderstorms FEW046 OVC075 79 71     77%   82 30.07        
Aug 15 14:53 SW 8 9 Mostly Cloudy FEW070 BKN085 81 72     74%   85 30.06 30.04      
Aug 15 13:53 S 6 10 Partly Cloudy SCT095 81 71     72%   85 30.06 30.04      
Aug 15 12:53 SW 3 10 Mostly Clear FEW055 81 71     72%   85 30.07 30.05      
Aug 15 11:53 Calm 10 Partly Cloudy SCT070 80 70     71%   83 30.06 30.05      
Aug 15 10:53 Calm 9 Partly Cloudy SCT070 78 71     79%   79 30.06 30.05      
Aug 15 09:53 Calm 8 Clear CLR 76 70     82%   77 30.06 30.05      
Aug 15 08:53 Calm 6 Fog/Mist SCT070 72 70     93%   73 30.06 30.05      
Aug 15 07:53 Calm 4 Fog/Mist CLR 68 68     100%     30.05 30.03      
Aug 15 06:53 Calm 4 Fog/Mist CLR 67 67     100%     30.03 30.02      
Aug 15 05:53 Calm 5 Fog/Mist CLR 67 67     100%     30.03 30.01      
Aug 15 04:53 Calm 4 Fog/Mist CLR 68 68     100%     30.03 30.01      
Aug 15 03:53 Calm 5 Fog/Mist CLR 68 68     100%     30.03 30.01      
Aug 15 02:53 Calm 6 Fog/Mist CLR 69 69     100%     30.03 30.01      
Aug 15 01:53 Calm 6 Fog/Mist CLR 69 68     96%     30.02 30.01      
Aug 15 00:53 Calm 7 Clear CLR 69 69     100%     30.02 30.01      
Aug 14 23:53 Calm 9 Clear CLR 71 69     93%   72 30.03 30.01      
Aug 14 22:53 Calm 10 Clear CLR 71 69     93%   72 30.03 30.01      
Notice The following observation data may not be complete
Aug 14 21:53 Calm 10 Clear CLR   70      %     30.01 30      
Notice The following observation data may not be complete
Aug 14 20:53 Calm 10 Cloudy SCT080 OVC100   70      %     30 29.99      
Aug 14 19:53 NW 5 10 Mostly Cloudy BKN095 83 66     57%   85 30 29.98      
Aug 14 18:53 W 9 10 Cloudy BKN060 OVC095 83 67     59%   86 29.99 29.97      
Aug 14 17:53 SW 3 10 Mostly Cloudy BKN060 BKN095 83 69     63%   87 29.98 29.97      
Aug 14 16:53 S 5 10 Partly Cloudy SCT090 86 65     50%   88 29.99 29.97      
Aug 14 15:53 S 5 10 Partly Cloudy SCT055 86 66     51%   88 30 29.98      
Aug 14 14:53 5 10 Partly Cloudy SCT050 85 65     51%   87 30.01 30      
Aug 14 13:53 S 6 10 Mostly Clear FEW048 84 67     57%   87 30.03 30.01      
Aug 14 12:53 3 10 Mostly Clear FEW055 83 67     59%   86 30.04 30.03      
Aug 14 11:53 W 7 10 Clear CLR 82 68     63%   85 30.05 30.04      
Aug 14 10:53 Calm 10 Clear CLR 79 71     77%   82 30.05 30.04      
Aug 14 09:53 Calm 10 Clear CLR 73 70     90%   74 30.05 30.04      
Aug 14 09:24 Calm 5 Fog/Mist SCT002 69 69     100%     30.05        
Aug 14 09:00 Calm 1 Fog/Mist OVC002 67 67     100%     30.05        
Aug 14 08:53 Calm 0.25 Fog VV002 67 67     100%     30.05 30.04      
Aug 14 07:53 Calm 0.25 Fog VV002 65 65     100%     30.04 30.03      
Aug 14 06:53 Calm 0.25 Fog VV002 63 63     100%     30.04 30.03      
Aug 14 06:34 Calm 0.25 Fog VV002 63 63     100%     30.03        
Aug 14 06:22 Calm 0.75 Fog/Mist VV002 63 63     100%     30.03        
Aug 14 06:20 Calm 1.75 Fog/Mist BKN003 63 63     100%     30.03        
Aug 14 05:53 Calm 5 Fog/Mist SCT003 64 64     100%     30.03 30.01      
Aug 14 05:50 Calm 5 Fog/Mist SCT003 64 64     100%     30.03        
Aug 14 05:37 Calm 3 Fog/Mist CLR 63 63     100%     30.02        
Aug 14 05:12 Calm 2 Fog/Mist CLR 62 62     100%     30.02        
Aug 14 04:53 Calm 6 Fog/Mist CLR 63 63     100%     30.02 30.01      
Aug 14 04:49 Calm 2 Fog/Mist CLR 63 63     100%     30.02        
Aug 14 04:45 Calm 0.75 Fog/Mist CLR 62 62     100%     30.02        
Aug 14 04:30 Calm 1.75 Fog/Mist CLR 63 63     100%     30.02        
Aug 14 03:53 Calm 4 Fog/Mist CLR 63 63     100%     30.02 30      
Aug 14 02:53 Calm 6 Fog/Mist CLR 64 64     100%     30.02 30.01      
Aug 14 01:53 Calm 5 Fog/Mist CLR 65 64     97%     30.04 30.02      
Aug 14 00:53 Calm 8 Clear CLR 65 65     100%     30.04 30.03      
Notice The following observation data may not be complete
Aug 13 23:53 Calm 8 Clear CLR   65      %     30.04 30.03      
Notice The following observation data may not be complete
Aug 13 21:53 Calm 10 Clear CLR   66      %     30.03 30.01      
Notice The following observation data may not be complete
Aug 13 20:53 Calm 10 Clear CLR   69      %     30.01 30      
Aug 13 19:53 N 6 10 Mostly Clear FEW060 80 66     62%   82 30 29.99      
Aug 13 18:53 Calm 10 Mostly Clear FEW055 78 71     79%   79 30 29.99      
Aug 13 17:53 ENE 5 10 Mostly Cloudy FEW055 BKN100 83        %     30.01 29.99      
Aug 13 16:53 ENE 6 10 Mostly Cloudy SCT060 BKN075 84 67     57%   87 30.01 30      
Aug 13 15:53 3 10 Partly Cloudy FEW080 SCT100 83 65     55%   85 30.03 30.01      
Aug 13 14:53 3 10 Partly Cloudy SCT050 83 65     55%   85 30.05 30.04      
Aug 13 13:53 5 10 Mostly Clear FEW048 84 66     55%   86 30.07 30.06      
Aug 13 12:53 SSE 3 10 Mostly Clear FEW043 FEW060 82 67     60%   85 30.09 30.07      
Aug 13 11:53 Calm 10 Mostly Clear FEW030 80 66     62%   82 30.1 30.09      
Aug 13 10:53 Calm 10 Clear CLR 76 67     74%   77 30.11 30.1      
Aug 13 09:53 Calm 10 Clear CLR 74 67     79%   75 30.11 30.1      
Aug 13 08:53 Calm 10 Clear CLR 69 67     93%     30.11 30.1      
Aug 13 07:53 NNE 3 4 Fog/Mist and Patchy Fog CLR 65 65     100%     30.1 30.09      
Aug 13 07:34 NNE 3 4 Fog/Mist CLR 64 64     100%     30.1        
Aug 13 07:27 NNE 3 1.5 Fog/Mist CLR 63 63     100%     30.1        
Aug 13 06:53 ENE 3 5 Fog/Mist CLR 62 62     100%     30.09 30.08      
Notice The following observation data may not be complete
Aug 13 04:10   2.5 Fog/Mist CLR          %              
May 14 18:53 SW 11 10 Mostly Clear FEW070 85 65     51%   87 29.88 29.86      
Notice The following observation data may not be complete
May 14 05:19 Calm 1.75 Fog/Mist CLR   65      %     30        
May 12 20:53 Calm 10 Clear CLR 76 67     74%   77 30 29.98      
Notice The following observation data may not be complete
May 12 00:53 WSW 5 10 Clear CLR   62      %     29.99 29.98      
May 11 16:53   10 Mostly Clear FEW075 85 61     45%   85 29.92 29.91      
Jun 11 12:53   10 Mostly Clear FEW060 86 64     48%   87 30.12 30.11      
Jun 10 18:53 S 14 10 Clear CLR 82 62     51%   83 29.99 29.97      
Jun 10 15:53 SSW 14 10 Clear CLR 84 62     48%   85 30.01 30      
Jun 10 14:53 SSW 10 10 Clear CLR 83 58     43%   83 30.02 30.01      
Jun 10 11:53 SSW 11 10 Clear CLR 80 61     52%   81 30.05 30.04      
Notice The following observation data may not be complete
Jun 09 06:24 Calm 0.75 Fog/Mist CLR   49      %     29.93        
Jun 08 05:14 Calm 4 Fog/Mist CLR 50 50     100%     30.02        
Jun 07 12:53 NE 9 10 Clear   64 54     70%     30.03 30.02      
Jun 05 17:37 SSW 6 10 Clear CLR 68 65     90%     29.73   0